Time,TemperatureF,DewpointF,PressureIn,WindDirection,WindDirectionDegrees,WindSpeedMPH,WindSpeedGustMPH,Humidity,HourlyPrecipIn,Conditions,Clouds,dailyrainin,SoftwareType,DateUTC
2013-01-04 00:04:00,18.2,10.4,29.91,WSW,251,0.0,3.0,71,0.00,,---,0.00,VWS V13.01,2013-01-04 06:04:00,
2013-01-04 00:09:00,18.3,10.5,29.91,West,265,4.0,4.0,71,0.00,,---,0.00,VWS V13.01,2013-01-04 06:09:00,
2013-01-04 00:14:00,18.4,10.6,29.91,West,279,4.0,7.0,71,0.00,,---,0.00,VWS V13.01,2013-01-04 06:14:00,
2013-01-04 00:19:00,18.5,10.4,29.91,West,259,2.0,9.0,70,0.00,,---,0.00,VWS V13.01,2013-01-04 06:19:00,
2013-01-04 00:24:00,18.5,10.4,29.91,WNW,288,2.0,9.0,70,0.00,,---,0.00,VWS V13.01,2013-01-04 06:24:00,
2013-01-04 00:29:00,18.5,10.4,29.91,WNW,295,2.0,13.0,70,0.00,,---,0.00,VWS V13.01,2013-01-04 06:29:00,
2013-01-04 00:34:00,18.4,10.3,29.91,West,273,10.0,10.0,70,0.00,,---,0.00,VWS V13.01,2013-01-04 06:34:00,
2013-01-04 00:39:00,18.3,10.2,29.90,WSW,245,9.0,13.0,70,0.00,,---,0.00,VWS V13.01,2013-01-04 06:39:00,
2013-01-04 00:44:00,18.1,10.0,29.90,WSW,237,3.0,13.0,70,0.00,,---,0.00,VWS V13.01,2013-01-04 06:44:00,
2013-01-04 00:49:00,18.0,9.9,29.90,SW,233,4.0,13.0,70,0.00,,---,0.00,VWS V13.01,2013-01-04 06:49:00,
2013-01-04 00:54:00,17.9,10.1,29.91,SW,229,2.0,13.0,71,0.00,,---,0.00,VWS V13.01,2013-01-04 06:54:00,
2013-01-04 00:59:00,17.7,9.9,29.91,WSW,256,4.0,13.0,71,0.00,,---,0.00,VWS V13.01,2013-01-04 06:59:00,
2013-01-04 01:04:00,17.7,9.9,29.91,West,276,0.0,10.0,71,0.00,,---,0.00,VWS V13.01,2013-01-04 07:04:00,
2013-01-04 01:09:00,17.5,9.7,29.91,WSW,252,3.0,10.0,71,0.00,,---,0.00,VWS V13.01,2013-01-04 07:09:00,
2013-01-04 01:14:00,17.4,9.9,29.91,WNW,295,2.0,11.0,72,0.00,,---,0.00,VWS V13.01,2013-01-04 07:14:00,
2013-01-04 01:19:00,17.2,9.7,29.91,West,265,9.0,13.0,72,0.00,,---,0.00,VWS V13.01,2013-01-04 07:19:00,
2013-01-04 01:24:00,17.1,9.6,29.91,WNW,291,1.0,13.0,72,0.00,,---,0.00,VWS V13.01,2013-01-04 07:24:00,
2013-01-04 01:29:00,16.9,9.8,29.92,North,9,1.0,13.0,73,0.00,,---,0.00,VWS V13.01,2013-01-04 07:29:00,
2013-01-04 01:34:00,16.8,9.7,29.92,WSW,257,1.0,5.0,73,0.00,,---,0.00,VWS V13.01,2013-01-04 07:34:00,
2013-01-04 01:39:00,16.6,9.5,29.92,West,267,3.0,10.0,73,0.00,,---,0.00,VWS V13.01,2013-01-04 07:39:00,
2013-01-04 01:44:00,16.5,9.7,29.92,WSW,257,0.0,14.0,74,0.00,,---,0.00,VWS V13.01,2013-01-04 07:44:00,
2013-01-04 01:49:00,16.4,9.6,29.92,WSW,238,4.0,14.0,74,0.00,,---,0.00,VWS V13.01,2013-01-04 07:49:00,
2013-01-04 01:54:00,16.3,9.5,29.92,West,279,0.0,14.0,74,0.00,,---,0.00,VWS V13.01,2013-01-04 07:54:00,
2013-01-04 01:59:00,16.2,9.4,29.92,WSW,244,1.0,14.0,74,0.00,,---,0.00,VWS V13.01,2013-01-04 07:59:00,
2013-01-04 02:04:00,16.0,9.2,29.92,SW,230,4.0,5.0,74,0.00,,---,0.00,VWS V13.01,2013-01-04 08:04:00,
2013-01-04 02:09:00,15.9,9.4,29.92,WSW,238,4.0,7.0,75,0.00,,---,0.00,VWS V13.01,2013-01-04 08:09:00,
2013-01-04 02:14:00,15.8,9.3,29.92,WSW,244,5.0,9.0,75,0.00,,---,0.00,VWS V13.01,2013-01-04 08:14:00,
2013-01-04 02:19:00,15.7,9.2,29.93,West,265,0.0,10.0,75,0.00,,---,0.00,VWS V13.01,2013-01-04 08:19:00,
2013-01-04 02:24:00,15.6,9.1,29.93,West,269,0.0,10.0,75,0.00,,---,0.00,VWS V13.01,2013-01-04 08:24:00,
2013-01-04 02:29:00,15.5,9.3,29.92,WSW,238,3.0,11.0,76,0.00,,---,0.00,VWS V13.01,2013-01-04 08:29:00,
2013-01-04 02:34:00,15.5,9.3,29.92,West,269,3.0,5.0,76,0.00,,---,0.00,VWS V13.01,2013-01-04 08:34:00,
2013-01-04 02:39:00,15.4,9.2,29.92,WNW,292,2.0,7.0,76,0.00,,---,0.00,VWS V13.01,2013-01-04 08:39:00,
2013-01-04 02:44:00,15.4,9.2,29.92,WSW,256,2.0,7.0,76,0.00,,---,0.00,VWS V13.01,2013-01-04 08:44:00,
2013-01-04 02:49:00,15.3,9.1,29.92,West,266,3.0,10.0,76,0.00,,---,0.00,VWS V13.01,2013-01-04 08:49:00,
2013-01-04 02:54:00,15.3,9.1,29.93,WSW,257,2.0,10.0,76,0.00,,---,0.00,VWS V13.01,2013-01-04 08:54:00,
2013-01-04 02:59:00,15.3,9.1,29.92,WSW,256,1.0,10.0,76,0.00,,---,0.00,VWS V13.01,2013-01-04 08:59:00,
2013-01-04 03:04:00,15.3,9.1,29.92,West,273,2.0,6.0,76,0.00,,---,0.00,VWS V13.01,2013-01-04 09:04:00,
2013-01-04 03:09:00,15.3,9.1,29.92,WSW,240,1.0,6.0,76,0.00,,---,0.00,VWS V13.01,2013-01-04 09:09:00,
2013-01-04 03:14:00,15.3,9.4,29.92,West,267,5.0,6.0,77,0.00,,---,0.00,VWS V13.01,2013-01-04 09:14:00,
2013-01-04 03:19:00,15.3,9.4,29.92,West,265,3.0,9.0,77,0.00,,---,0.00,VWS V13.01,2013-01-04 09:19:00,
2013-01-04 03:24:00,15.4,9.5,29.92,West,265,1.0,9.0,77,0.00,,---,0.00,VWS V13.01,2013-01-04 09:24:00,
2013-01-04 03:29:00,15.4,9.5,29.92,WNW,286,2.0,10.0,77,0.00,,---,0.00,VWS V13.01,2013-01-04 09:29:00,
2013-01-04 03:34:00,15.4,9.5,29.92,West,259,2.0,8.0,77,0.00,,---,0.00,VWS V13.01,2013-01-04 09:34:00,
2013-01-04 03:39:00,15.5,9.6,29.91,WNW,294,1.0,9.0,77,0.00,,---,0.00,VWS V13.01,2013-01-04 09:39:00,
2013-01-04 03:44:00,15.6,9.7,29.91,West,259,2.0,9.0,77,0.00,,---,0.00,VWS V13.01,2013-01-04 09:44:00,
2013-01-04 03:49:00,15.7,9.8,29.91,WSW,250,7.0,11.0,77,0.00,,---,0.00,VWS V13.01,2013-01-04 09:49:00,
2013-01-04 03:54:00,15.8,9.9,29.90,WSW,240,3.0,11.0,77,0.00,,---,0.00,VWS V13.01,2013-01-04 09:54:00,
2013-01-04 03:59:00,15.9,10.0,29.90,WSW,249,0.0,11.0,77,0.00,,---,0.00,VWS V13.01,2013-01-04 09:59:00,
2013-01-04 04:04:00,15.9,10.0,29.90,West,263,4.0,7.0,77,0.00,,---,0.00,VWS V13.01,2013-01-04 10:04:00,
2013-01-04 04:10:00,16.0,10.1,29.91,West,259,1.0,8.0,77,0.00,,---,0.00,VWS V13.01,2013-01-04 10:10:00,
2013-01-04 04:15:00,16.1,10.2,29.91,West,277,6.0,10.0,77,0.00,,---,0.00,VWS V13.01,2013-01-04 10:15:00,
2013-01-04 04:20:00,16.1,10.2,29.90,West,281,1.0,10.0,77,0.00,,---,0.00,VWS V13.01,2013-01-04 10:20:00,
2013-01-04 04:25:00,16.1,10.2,29.91,West,275,2.0,10.0,77,0.00,,---,0.00,VWS V13.01,2013-01-04 10:25:00,
2013-01-04 04:30:00,16.0,10.1,29.91,NW,314,2.0,10.0,77,0.00,,---,0.00,VWS V13.01,2013-01-04 10:30:00,
2013-01-04 04:35:00,16.0,10.1,29.91,NW,313,3.0,3.0,77,0.00,,---,0.00,VWS V13.01,2013-01-04 10:35:00,
2013-01-04 04:40:00,16.0,10.4,29.91,WNW,302,2.0,5.0,78,0.00,,---,0.00,VWS V13.01,2013-01-04 10:40:00,
2013-01-04 04:45:00,16.0,10.4,29.91,WNW,298,2.0,5.0,78,0.00,,---,0.00,VWS V13.01,2013-01-04 10:45:00,
2013-01-04 04:50:00,15.9,10.3,29.91,WNW,299,1.0,5.0,78,0.00,,---,0.00,VWS V13.01,2013-01-04 10:50:00,
2013-01-04 04:55:00,15.8,10.2,29.91,WNW,288,1.0,5.0,78,0.00,,---,0.00,VWS V13.01,2013-01-04 10:55:00,
2013-01-04 05:00:00,15.7,10.1,29.91,WSW,247,6.0,6.0,78,0.00,,---,0.00,VWS V13.01,2013-01-04 11:00:00,
2013-01-04 05:05:00,15.6,10.0,29.91,West,265,2.0,7.0,78,0.00,,---,0.00,VWS V13.01,2013-01-04 11:05:00,
2013-01-04 05:10:00,15.5,10.2,29.91,West,263,1.0,7.0,79,0.00,,---,0.00,VWS V13.01,2013-01-04 11:10:00,
2013-01-04 05:15:00,15.4,10.1,29.91,NW,309,1.0,7.0,79,0.00,,---,0.00,VWS V13.01,2013-01-04 11:15:00,
2013-01-04 05:20:00,15.3,10.0,29.91,NW,316,3.0,7.0,79,0.00,,---,0.00,VWS V13.01,2013-01-04 11:20:00,
2013-01-04 05:25:00,15.2,9.9,29.92,NW,312,2.0,7.0,79,0.00,,---,0.00,VWS V13.01,2013-01-04 11:25:00,
2013-01-04 05:30:00,15.1,9.8,29.91,West,269,2.0,8.0,79,0.00,,---,0.00,VWS V13.01,2013-01-04 11:30:00,
2013-01-04 05:35:00,15.1,10.1,29.91,West,269,2.0,7.0,80,0.00,,---,0.00,VWS V13.01,2013-01-04 11:35:00,
2013-01-04 05:40:00,15.0,10.0,29.91,West,269,0.0,7.0,80,0.00,,---,0.00,VWS V13.01,2013-01-04 11:40:00,
2013-01-04 05:45:00,15.0,10.0,29.91,West,263,2.0,7.0,80,0.00,,---,0.00,VWS V13.01,2013-01-04 11:45:00,
2013-01-04 05:50:00,14.9,9.9,29.92,West,271,0.0,7.0,80,0.00,,---,0.00,VWS V13.01,2013-01-04 11:50:00,
2013-01-04 05:55:00,14.8,9.8,29.92,WNW,296,1.0,7.0,80,0.00,,---,0.00,VWS V13.01,2013-01-04 11:55:00,
2013-01-04 06:00:00,14.8,9.8,29.92,West,275,1.0,7.0,80,0.00,,---,0.00,VWS V13.01,2013-01-04 12:00:00,
2013-01-04 06:05:00,14.8,10.0,29.91,West,259,2.0,7.0,81,0.00,,---,0.00,VWS V13.01,2013-01-04 12:05:00,
2013-01-04 06:10:00,14.7,9.9,29.92,WNW,282,2.0,7.0,81,0.00,,---,0.00,VWS V13.01,2013-01-04 12:10:00,
2013-01-04 06:15:00,14.7,9.9,29.92,WNW,285,0.0,7.0,81,0.00,,---,0.00,VWS V13.01,2013-01-04 12:15:00,
2013-01-04 06:20:00,14.6,9.8,29.92,NW,309,2.0,7.0,81,0.00,,---,0.00,VWS V13.01,2013-01-04 12:20:00,
2013-01-04 06:25:00,14.6,9.8,29.92,WNW,287,0.0,7.0,81,0.00,,---,0.00,VWS V13.01,2013-01-04 12:25:00,
2013-01-04 06:30:00,14.5,9.7,29.92,West,260,0.0,7.0,81,0.00,,---,0.00,VWS V13.01,2013-01-04 12:30:00,
2013-01-04 06:35:00,14.5,9.7,29.92,West,265,0.0,6.0,81,0.00,,---,0.00,VWS V13.01,2013-01-04 12:35:00,
2013-01-04 06:40:00,14.5,10.0,29.92,WSW,249,3.0,6.0,82,0.00,,---,0.00,VWS V13.01,2013-01-04 12:40:00,
2013-01-04 06:45:00,14.5,10.0,29.93,West,277,0.0,10.0,82,0.00,,---,0.00,VWS V13.01,2013-01-04 12:45:00,
2013-01-04 06:50:00,14.4,9.9,29.93,WNW,302,3.0,10.0,82,0.00,,---,0.00,VWS V13.01,2013-01-04 12:50:00,
2013-01-04 06:55:00,14.3,9.8,29.93,WNW,298,0.0,10.0,82,0.00,,---,0.00,VWS V13.01,2013-01-04 12:55:00,
2013-01-04 07:00:00,14.3,9.8,29.93,West,264,2.0,10.0,82,0.00,,---,0.00,VWS V13.01,2013-01-04 13:00:00,
2013-01-04 07:05:00,14.2,9.7,29.93,WSW,250,0.0,3.0,82,0.00,,---,0.00,VWS V13.01,2013-01-04 13:05:00,
2013-01-04 07:10:00,14.1,9.6,29.93,WNW,302,0.0,3.0,82,0.00,,---,0.00,VWS V13.01,2013-01-04 13:10:00,
2013-01-04 07:15:00,14.1,9.6,29.93,West,263,0.0,7.0,82,0.00,,---,0.00,VWS V13.01,2013-01-04 13:15:00,
2013-01-04 07:21:00,14.0,9.5,29.93,West,277,0.0,7.0,82,0.00,,---,0.00,VWS V13.01,2013-01-04 13:21:00,
2013-01-04 07:26:00,13.9,9.4,29.93,West,271,0.0,7.0,82,0.00,,---,0.00,VWS V13.01,2013-01-04 13:26:00,
2013-01-04 07:31:00,13.9,9.7,29.94,WNW,283,0.0,7.0,83,0.00,,---,0.00,VWS V13.01,2013-01-04 13:31:00,
2013-01-04 07:36:00,13.8,9.6,29.94,NW,307,1.0,4.0,83,0.00,,---,0.00,VWS V13.01,2013-01-04 13:36:00,
2013-01-04 07:41:00,13.8,9.6,29.94,WNW,296,1.0,4.0,83,0.00,,---,0.00,VWS V13.01,2013-01-04 13:41:00,
2013-01-04 07:46:00,13.8,9.6,29.94,WNW,284,1.0,4.0,83,0.00,,---,0.00,VWS V13.01,2013-01-04 13:46:00,
2013-01-04 07:51:00,13.7,9.5,29.94,West,262,0.0,4.0,83,0.00,,---,0.00,VWS V13.01,2013-01-04 13:51:00,
2013-01-04 07:56:00,13.7,9.5,29.94,West,277,0.0,4.0,83,0.00,,---,0.00,VWS V13.01,2013-01-04 13:56:00,
2013-01-04 08:01:00,13.7,9.5,29.94,WNW,288,0.0,6.0,83,0.00,,---,0.00,VWS V13.01,2013-01-04 14:01:00,
2013-01-04 08:06:00,13.8,9.9,29.94,West,261,0.0,9.0,84,0.00,,---,0.00,VWS V13.01,2013-01-04 14:06:00,
2013-01-04 08:11:00,13.8,9.9,29.94,West,271,2.0,9.0,84,0.00,,---,0.00,VWS V13.01,2013-01-04 14:11:00,
2013-01-04 08:16:00,13.9,10.0,29.94,West,259,0.0,9.0,84,0.00,,---,0.00,VWS V13.01,2013-01-04 14:16:00,
2013-01-04 08:21:00,13.9,10.0,29.94,WSW,241,2.0,9.0,84,0.00,,---,0.00,VWS V13.01,2013-01-04 14:21:00,
2013-01-04 08:26:00,14.0,10.1,29.94,West,260,1.0,9.0,84,0.00,,---,0.00,VWS V13.01,2013-01-04 14:26:00,
2013-01-04 08:31:00,14.1,10.2,29.94,West,269,2.0,9.0,84,0.00,,---,0.00,VWS V13.01,2013-01-04 14:31:00,
2013-01-04 08:36:00,14.2,10.0,29.94,West,263,2.0,5.0,83,0.00,,---,0.00,VWS V13.01,2013-01-04 14:36:00,
2013-01-04 08:41:00,14.3,10.1,29.94,WSW,246,4.0,7.0,83,0.00,,---,0.00,VWS V13.01,2013-01-04 14:41:00,
2013-01-04 08:46:00,14.5,10.3,29.95,West,267,2.0,7.0,83,0.00,,---,0.00,VWS V13.01,2013-01-04 14:46:00,
2013-01-04 08:51:00,14.7,10.5,29.95,WSW,239,1.0,7.0,83,0.00,,---,0.00,VWS V13.01,2013-01-04 14:51:00,
2013-01-04 08:56:00,14.9,10.7,29.95,West,263,3.0,7.0,83,0.00,,---,0.00,VWS V13.01,2013-01-04 14:56:00,
2013-01-04 09:01:00,15.0,10.8,29.95,WNW,288,0.0,7.0,83,0.00,,---,0.00,VWS V13.01,2013-01-04 15:01:00,
2013-01-04 09:06:00,15.3,11.1,29.95,West,265,2.0,5.0,83,0.00,,---,0.00,VWS V13.01,2013-01-04 15:06:00,
2013-01-04 09:11:00,15.5,11.0,29.96,WSW,252,1.0,5.0,82,0.00,,---,0.00,VWS V13.01,2013-01-04 15:11:00,
2013-01-04 09:16:00,15.7,11.2,29.96,WSW,254,2.0,5.0,82,0.00,,---,0.00,VWS V13.01,2013-01-04 15:16:00,
2013-01-04 09:21:00,16.3,11.5,29.96,West,267,3.0,5.0,81,0.00,,---,0.00,VWS V13.01,2013-01-04 15:21:00,
2013-01-04 09:26:00,16.8,11.7,29.96,West,265,1.0,9.0,80,0.00,,---,0.00,VWS V13.01,2013-01-04 15:26:00,
2013-01-04 09:31:00,17.1,12.0,29.96,SW,221,1.0,9.0,80,0.00,,---,0.00,VWS V13.01,2013-01-04 15:31:00,
2013-01-04 09:36:00,17.6,12.2,29.96,West,265,2.0,4.0,79,0.00,,---,0.00,VWS V13.01,2013-01-04 15:36:00,
2013-01-04 09:41:00,17.9,12.2,29.97,West,261,2.0,5.0,78,0.00,,---,0.00,VWS V13.01,2013-01-04 15:41:00,
2013-01-04 09:46:00,18.2,12.2,29.97,WSW,240,3.0,5.0,77,0.00,,---,0.00,VWS V13.01,2013-01-04 15:46:00,
2013-01-04 09:51:00,18.4,12.4,29.97,WSW,258,2.0,5.0,77,0.00,,---,0.00,VWS V13.01,2013-01-04 15:51:00,
2013-01-04 09:56:00,18.6,12.6,29.97,West,267,0.0,5.0,77,0.00,,---,0.00,VWS V13.01,2013-01-04 15:56:00,
2013-01-04 10:01:00,19.0,13.0,29.97,SW,222,3.0,5.0,77,0.00,,---,0.00,VWS V13.01,2013-01-04 16:01:00,
2013-01-04 10:06:00,19.2,12.9,29.97,NW,304,0.0,4.0,76,0.00,,---,0.00,VWS V13.01,2013-01-04 16:06:00,
2013-01-04 10:11:00,19.5,13.2,29.97,WSW,244,1.0,4.0,76,0.00,,---,0.00,VWS V13.01,2013-01-04 16:11:00,
2013-01-04 10:16:00,19.9,13.3,29.97,SW,233,0.0,6.0,75,0.00,,---,0.00,VWS V13.01,2013-01-04 16:16:00,
2013-01-04 10:21:00,20.4,13.8,29.97,WSW,254,0.0,6.0,75,0.00,,---,0.00,VWS V13.01,2013-01-04 16:21:00,
2013-01-04 10:26:00,20.7,13.7,29.97,West,263,1.0,6.0,74,0.00,,---,0.00,VWS V13.01,2013-01-04 16:26:00,
2013-01-04 10:31:00,21.2,14.2,29.97,WSW,256,1.0,6.0,74,0.00,,---,0.00,VWS V13.01,2013-01-04 16:31:00,
2013-01-04 10:36:00,21.4,14.4,29.97,WNW,303,0.0,4.0,74,0.00,,---,0.00,VWS V13.01,2013-01-04 16:36:00,
2013-01-04 10:41:00,21.8,14.8,29.97,West,264,1.0,5.0,74,0.00,,---,0.00,VWS V13.01,2013-01-04 16:41:00,
2013-01-04 10:46:00,22.1,14.8,29.97,WSW,251,0.0,5.0,73,0.00,,---,0.00,VWS V13.01,2013-01-04 16:46:00,
2013-01-04 10:51:00,22.4,15.1,29.97,WSW,256,3.0,5.0,73,0.00,,---,0.00,VWS V13.01,2013-01-04 16:51:00,
2013-01-04 10:56:00,22.8,15.1,29.97,WSW,249,1.0,6.0,72,0.00,,---,0.00,VWS V13.01,2013-01-04 16:56:00,
2013-01-04 11:01:00,23.1,15.4,29.96,West,263,1.0,6.0,72,0.00,,---,0.00,VWS V13.01,2013-01-04 17:01:00,
2013-01-04 11:06:00,23.5,15.8,29.96,West,263,0.0,4.0,72,0.00,,---,0.00,VWS V13.01,2013-01-04 17:06:00,
2013-01-04 11:11:00,23.9,15.9,29.96,SW,234,1.0,5.0,71,0.00,,---,0.00,VWS V13.01,2013-01-04 17:11:00,
2013-01-04 11:16:00,24.5,16.1,29.96,SW,226,3.0,5.0,70,0.00,,---,0.00,VWS V13.01,2013-01-04 17:16:00,
2013-01-04 11:21:00,24.9,16.5,29.95,SW,219,1.0,6.0,70,0.00,,---,0.00,VWS V13.01,2013-01-04 17:21:00,
2013-01-04 11:26:00,25.3,16.6,29.96,West,264,3.0,6.0,69,0.00,,---,0.00,VWS V13.01,2013-01-04 17:26:00,
2013-01-04 11:31:00,25.4,16.3,29.96,West,267,1.0,6.0,68,0.00,,---,0.00,VWS V13.01,2013-01-04 17:31:00,
2013-01-04 11:36:00,25.9,16.8,29.95,West,280,0.0,3.0,68,0.00,,---,0.00,VWS V13.01,2013-01-04 17:36:00,
2013-01-04 11:41:00,26.1,17.3,29.95,WSW,244,3.0,3.0,69,0.00,,---,0.00,VWS V13.01,2013-01-04 17:41:00,
2013-01-04 11:46:00,26.8,17.3,29.95,WNW,286,1.0,4.0,67,0.00,,---,0.00,VWS V13.01,2013-01-04 17:46:00,
2013-01-04 11:52:00,27.0,17.9,29.95,WNW,291,3.0,7.0,68,0.00,,---,0.00,VWS V13.01,2013-01-04 17:52:00,
2013-01-04 11:57:00,27.1,18.3,29.95,NW,309,4.0,10.0,69,0.00,,---,0.00,VWS V13.01,2013-01-04 17:57:00,
2013-01-04 12:02:00,27.1,18.3,29.95,NW,306,6.0,10.0,69,0.00,,---,0.00,VWS V13.01,2013-01-04 18:02:00,
2013-01-04 12:07:00,27.8,18.6,29.95,West,266,1.0,6.0,68,0.00,,---,0.00,VWS V13.01,2013-01-04 18:07:00,
2013-01-04 12:12:00,28.0,18.5,29.95,NW,321,2.0,6.0,67,0.00,,---,0.00,VWS V13.01,2013-01-04 18:12:00,
2013-01-04 12:17:00,27.8,19.0,29.95,NW,304,4.0,6.0,69,0.00,,---,0.00,VWS V13.01,2013-01-04 18:17:00,
2013-01-04 12:22:00,28.0,18.8,29.95,SW,227,3.0,9.0,68,0.00,,---,0.00,VWS V13.01,2013-01-04 18:22:00,
2013-01-04 12:27:00,28.1,18.6,29.95,NW,306,2.0,9.0,67,0.00,,---,0.00,VWS V13.01,2013-01-04 18:27:00,
2013-01-04 12:32:00,28.2,19.0,29.95,NW,307,2.0,9.0,68,0.00,,---,0.00,VWS V13.01,2013-01-04 18:32:00,
2013-01-04 12:37:00,28.5,19.0,29.95,WNW,292,2.0,4.0,67,0.00,,---,0.00,VWS V13.01,2013-01-04 18:37:00,
2013-01-04 12:42:00,28.7,19.1,29.95,West,267,1.0,6.0,67,0.00,,---,0.00,VWS V13.01,2013-01-04 18:42:00,
2013-01-04 12:47:00,29.0,19.1,29.95,WNW,290,2.0,9.0,66,0.00,,---,0.00,VWS V13.01,2013-01-04 18:47:00,
2013-01-04 12:52:00,29.3,19.4,29.95,WSW,240,2.0,9.0,66,0.00,,---,0.00,VWS V13.01,2013-01-04 18:52:00,
2013-01-04 12:57:00,29.6,19.3,29.95,West,259,9.0,9.0,65,0.00,,---,0.00,VWS V13.01,2013-01-04 18:57:00,
2013-01-04 13:02:00,30.1,19.4,29.95,West,281,2.0,4.0,64,0.00,,---,0.00,VWS V13.01,2013-01-04 19:02:00,
2013-01-04 13:07:00,30.3,19.6,29.95,SW,236,4.0,4.0,64,0.00,,---,0.00,VWS V13.01,2013-01-04 19:07:00,
2013-01-04 13:12:00,30.8,19.7,29.95,SW,234,2.0,9.0,63,0.00,,---,0.00,VWS V13.01,2013-01-04 19:12:00,
2013-01-04 13:17:00,31.1,20.0,29.96,WNW,289,1.0,9.0,63,0.00,,---,0.00,VWS V13.01,2013-01-04 19:17:00,
2013-01-04 13:22:00,31.2,20.1,29.96,WSW,241,3.0,9.0,63,0.00,,---,0.00,VWS V13.01,2013-01-04 19:22:00,
2013-01-04 13:27:00,31.6,20.1,29.96,WNW,303,2.0,9.0,62,0.00,,---,0.00,VWS V13.01,2013-01-04 19:27:00,
2013-01-04 13:32:00,31.7,20.6,29.96,WSW,256,3.0,3.0,63,0.00,,---,0.00,VWS V13.01,2013-01-04 19:32:00,
2013-01-04 13:37:00,31.8,20.3,29.95,NW,315,2.0,5.0,62,0.00,,---,0.00,VWS V13.01,2013-01-04 19:37:00,
2013-01-04 13:42:00,31.9,20.4,29.95,West,272,0.0,6.0,62,0.00,,---,0.00,VWS V13.01,2013-01-04 19:42:00,
2013-01-04 13:47:00,32.4,20.5,29.95,WNW,291,1.0,6.0,61,0.00,,---,0.00,VWS V13.01,2013-01-04 19:47:00,
2013-01-04 13:52:00,32.3,20.0,29.96,WNW,293,2.0,6.0,60,0.00,,---,0.01,VWS V13.01,2013-01-04 19:52:00,
2013-01-04 13:57:00,32.4,20.1,29.96,WNW,292,4.0,6.0,60,0.01,,---,0.01,VWS V13.01,2013-01-04 19:57:00,
2013-01-04 14:02:00,33.0,19.9,29.96,NW,309,4.0,5.0,58,0.01,,---,0.01,VWS V13.01,2013-01-04 20:02:00,
2013-01-04 14:07:00,33.2,19.6,29.96,NW,310,5.0,6.0,57,0.01,,---,0.01,VWS V13.01,2013-01-04 20:07:00,
2013-01-04 14:12:00,33.3,19.7,29.96,NW,321,0.0,6.0,57,0.01,,---,0.01,VWS V13.01,2013-01-04 20:12:00,
2013-01-04 14:17:00,33.2,20.0,29.96,NW,311,4.0,6.0,58,0.01,,---,0.01,VWS V13.01,2013-01-04 20:17:00,
2013-01-04 14:22:00,33.0,19.9,29.96,NW,313,3.0,6.0,58,0.01,,---,0.01,VWS V13.01,2013-01-04 20:22:00,
2013-01-04 14:27:00,32.9,20.2,29.96,NW,304,3.0,6.0,59,0.01,,---,0.01,VWS V13.01,2013-01-04 20:27:00,
2013-01-04 14:32:00,32.8,20.1,29.96,NW,304,3.0,3.0,59,0.01,,---,0.01,VWS V13.01,2013-01-04 20:32:00,
2013-01-04 14:37:00,33.0,20.2,29.96,WNW,300,1.0,4.0,59,0.01,,---,0.01,VWS V13.01,2013-01-04 20:37:00,
2013-01-04 14:42:00,33.2,20.4,29.96,WSW,257,1.0,4.0,59,0.01,,---,0.01,VWS V13.01,2013-01-04 20:42:00,
2013-01-04 14:47:00,33.2,20.4,29.97,WSW,250,3.0,4.0,59,0.01,,---,0.01,VWS V13.01,2013-01-04 20:47:00,
2013-01-04 14:52:00,33.4,19.8,29.97,NW,318,1.0,4.0,57,0.01,,---,0.01,VWS V13.01,2013-01-04 20:52:00,
2013-01-04 14:57:00,33.6,19.6,29.97,NW,319,3.0,6.0,56,0.01,,---,0.01,VWS V13.01,2013-01-04 20:57:00,
2013-01-04 15:02:00,33.8,19.8,29.97,WNW,300,2.0,3.0,56,0.01,,---,0.01,VWS V13.01,2013-01-04 21:02:00,
2013-01-04 15:07:00,33.9,19.5,29.97,WNW,300,2.0,6.0,55,0.00,,---,0.01,VWS V13.01,2013-01-04 21:07:00,
2013-01-04 15:12:00,34.0,19.5,29.97,NW,307,0.0,6.0,55,0.00,,---,0.01,VWS V13.01,2013-01-04 21:12:00,
2013-01-04 15:17:00,33.9,19.5,29.98,NW,317,4.0,6.0,55,0.00,,---,0.01,VWS V13.01,2013-01-04 21:17:00,
2013-01-04 15:22:00,33.8,19.8,29.98,WNW,300,4.0,6.0,56,0.00,,---,0.01,VWS V13.01,2013-01-04 21:22:00,
2013-01-04 15:28:00,33.6,19.2,29.98,WNW,302,4.0,6.0,55,0.00,,---,0.01,VWS V13.01,2013-01-04 21:28:00,
2013-01-04 15:33:00,33.7,19.3,29.98,NW,306,5.0,5.0,55,0.00,,---,0.01,VWS V13.01,2013-01-04 21:33:00,
2013-01-04 15:38:00,33.9,19.0,29.99,WNW,302,5.0,6.0,54,0.00,,---,0.01,VWS V13.01,2013-01-04 21:38:00,
2013-01-04 15:43:00,34.2,19.3,29.99,NW,317,3.0,6.0,54,0.00,,---,0.01,VWS V13.01,2013-01-04 21:43:00,
2013-01-04 15:48:00,34.1,19.2,30.00,NW,318,4.0,7.0,54,0.00,,---,0.01,VWS V13.01,2013-01-04 21:48:00,
2013-01-04 15:53:00,33.8,19.4,30.00,NW,306,2.0,7.0,55,0.00,,---,0.01,VWS V13.01,2013-01-04 21:53:00,
2013-01-04 15:58:00,33.5,18.6,30.00,WNW,299,3.0,7.0,54,0.00,,---,0.01,VWS V13.01,2013-01-04 21:58:00,
2013-01-04 16:03:00,33.6,18.7,30.00,NW,318,5.0,5.0,54,0.00,,---,0.01,VWS V13.01,2013-01-04 22:03:00,
2013-01-04 16:08:00,33.5,19.1,30.00,NW,310,4.0,5.0,55,0.00,,---,0.01,VWS V13.01,2013-01-04 22:08:00,
2013-01-04 16:13:00,33.5,19.1,30.00,NW,309,3.0,5.0,55,0.00,,---,0.01,VWS V13.01,2013-01-04 22:13:00,
2013-01-04 16:18:00,33.5,18.6,30.01,NW,317,2.0,5.0,54,0.00,,---,0.01,VWS V13.01,2013-01-04 22:18:00,
2013-01-04 16:23:00,33.0,18.6,30.01,NW,317,1.0,5.0,55,0.00,,---,0.01,VWS V13.01,2013-01-04 22:23:00,
2013-01-04 16:28:00,32.4,18.9,30.01,NW,317,3.0,5.0,57,0.00,,---,0.01,VWS V13.01,2013-01-04 22:28:00,
2013-01-04 16:33:00,32.2,18.7,30.01,NW,317,3.0,3.0,57,0.00,,---,0.01,VWS V13.01,2013-01-04 22:33:00,
2013-01-04 16:38:00,32.0,18.9,30.02,NW,317,2.0,4.0,58,0.00,,---,0.01,VWS V13.01,2013-01-04 22:38:00,
2013-01-04 16:43:00,32.0,18.9,30.02,NW,317,1.0,4.0,58,0.00,,---,0.01,VWS V13.01,2013-01-04 22:43:00,
2013-01-04 16:48:00,31.7,19.0,30.03,NW,317,3.0,4.0,59,0.00,,---,0.01,VWS V13.01,2013-01-04 22:48:00,
2013-01-04 16:53:00,31.6,18.9,30.03,NW,317,0.0,4.0,59,0.00,,---,0.01,VWS V13.01,2013-01-04 22:53:00,
2013-01-04 16:58:00,31.6,18.9,30.04,NW,317,1.0,4.0,59,0.00,,---,0.01,VWS V13.01,2013-01-04 22:58:00,
2013-01-04 17:03:00,31.3,18.6,30.04,NW,317,0.0,2.0,59,0.00,,---,0.01,VWS V13.01,2013-01-04 23:03:00,
2013-01-04 17:08:00,31.3,18.6,30.04,NW,314,1.0,4.0,59,0.00,,---,0.01,VWS V13.01,2013-01-04 23:08:00,
2013-01-04 17:13:00,31.3,18.6,30.04,NW,314,1.0,4.0,59,0.00,,---,0.01,VWS V13.01,2013-01-04 23:13:00,
2013-01-04 17:18:00,31.0,18.4,30.04,NNW,327,2.0,4.0,59,0.00,,---,0.01,VWS V13.01,2013-01-04 23:18:00,
2013-01-04 17:23:00,30.9,18.3,30.04,NNW,328,2.0,4.0,59,0.00,,---,0.01,VWS V13.01,2013-01-04 23:23:00,
2013-01-04 17:28:00,30.8,18.6,30.05,NNW,328,3.0,4.0,60,0.00,,---,0.01,VWS V13.01,2013-01-04 23:28:00,
2013-01-04 17:33:00,30.7,18.5,30.05,NNW,327,3.0,3.0,60,0.00,,---,0.01,VWS V13.01,2013-01-04 23:33:00,
2013-01-04 17:38:00,30.6,18.4,30.06,NW,312,3.0,4.0,60,0.00,,---,0.01,VWS V13.01,2013-01-04 23:38:00,
2013-01-04 17:43:00,30.6,18.8,30.06,NW,312,3.0,4.0,61,0.00,,---,0.01,VWS V13.01,2013-01-04 23:43:00,
2013-01-04 17:48:00,30.6,18.8,30.06,NW,322,3.0,4.0,61,0.00,,---,0.01,VWS V13.01,2013-01-04 23:48:00,
2013-01-04 17:53:00,30.4,19.0,30.07,NW,325,2.0,5.0,62,0.00,,---,0.01,VWS V13.01,2013-01-04 23:53:00,
2013-01-04 17:58:00,30.2,18.8,30.07,NW,309,3.0,5.0,62,0.00,,---,0.01,VWS V13.01,2013-01-04 23:58:00,
2013-01-04 18:03:00,30.2,18.8,30.07,WNW,296,2.0,5.0,62,0.00,,---,0.01,VWS V13.01,2013-01-05 00:03:00,
2013-01-04 18:08:00,30.1,19.0,30.08,NW,322,2.0,6.0,63,0.00,,---,0.01,VWS V13.01,2013-01-05 00:08:00,
2013-01-04 18:13:00,29.8,18.8,30.08,NW,309,6.0,6.0,63,0.00,,---,0.01,VWS V13.01,2013-01-05 00:13:00,
2013-01-04 18:18:00,29.7,18.7,30.08,NW,321,3.0,6.0,63,0.00,,---,0.01,VWS V13.01,2013-01-05 00:18:00,
2013-01-04 18:23:00,29.6,18.9,30.08,NW,323,3.0,6.0,64,0.00,,---,0.01,VWS V13.01,2013-01-05 00:23:00,
2013-01-04 18:28:00,29.5,18.8,30.08,NW,324,3.0,6.0,64,0.00,,---,0.01,VWS V13.01,2013-01-05 00:28:00,
2013-01-04 18:33:00,29.3,19.0,30.09,NW,323,0.0,4.0,65,0.00,,---,0.01,VWS V13.01,2013-01-05 00:33:00,
2013-01-04 18:38:00,29.2,18.9,30.09,NW,325,3.0,4.0,65,0.00,,---,0.01,VWS V13.01,2013-01-05 00:38:00,
2013-01-04 18:43:00,29.0,19.1,30.09,NW,321,2.0,4.0,66,0.00,,---,0.01,VWS V13.01,2013-01-05 00:43:00,
2013-01-04 18:48:00,28.8,18.9,30.09,NW,321,3.0,4.0,66,0.00,,---,0.01,VWS V13.01,2013-01-05 00:48:00,
2013-01-04 18:53:00,28.6,19.0,30.10,NW,313,2.0,4.0,67,0.00,,---,0.01,VWS V13.01,2013-01-05 00:53:00,
2013-01-04 18:58:00,28.5,19.0,30.10,NNW,331,2.0,4.0,67,0.00,,---,0.01,VWS V13.01,2013-01-05 00:58:00,
2013-01-04 19:03:00,28.4,18.9,30.10,NW,315,2.0,4.0,67,0.00,,---,0.01,VWS V13.01,2013-01-05 01:03:00,
2013-01-04 19:09:00,28.3,19.1,30.10,NW,318,2.0,4.0,68,0.00,,---,0.01,VWS V13.01,2013-01-05 01:09:00,
2013-01-04 19:14:00,28.2,19.0,30.10,NW,318,2.0,4.0,68,0.00,,---,0.01,VWS V13.01,2013-01-05 01:14:00,
2013-01-04 19:19:00,28.2,19.0,30.10,NW,309,3.0,6.0,68,0.00,,---,0.01,VWS V13.01,2013-01-05 01:19:00,
2013-01-04 19:24:00,28.1,19.3,30.10,NW,309,1.0,6.0,69,0.00,,---,0.01,VWS V13.01,2013-01-05 01:24:00,
2013-01-04 19:29:00,28.0,19.2,30.10,NW,309,2.0,6.0,69,0.00,,---,0.01,VWS V13.01,2013-01-05 01:29:00,
2013-01-04 19:34:00,27.8,19.3,30.11,NW,309,2.0,3.0,70,0.00,,---,0.01,VWS V13.01,2013-01-05 01:34:00,
2013-01-04 19:39:00,27.8,19.3,30.11,NW,309,2.0,3.0,70,0.00,,---,0.01,VWS V13.01,2013-01-05 01:39:00,
2013-01-04 19:44:00,27.7,19.5,30.11,NNW,327,2.0,4.0,71,0.00,,---,0.01,VWS V13.01,2013-01-05 01:44:00,
2013-01-04 19:49:00,27.5,19.4,30.11,NNW,327,1.0,4.0,71,0.00,,---,0.01,VWS V13.01,2013-01-05 01:49:00,
2013-01-04 19:54:00,27.4,19.6,30.11,NNW,328,1.0,4.0,72,0.00,,---,0.01,VWS V13.01,2013-01-05 01:54:00,
2013-01-04 19:59:00,27.4,19.6,30.11,NW,321,2.0,4.0,72,0.00,,---,0.01,VWS V13.01,2013-01-05 01:59:00,
2013-01-04 20:04:00,27.4,19.6,30.11,NW,321,1.0,2.0,72,0.00,,---,0.01,VWS V13.01,2013-01-05 02:04:00,
2013-01-04 20:09:00,27.3,19.8,30.11,NW,321,0.0,2.0,73,0.00,,---,0.01,VWS V13.01,2013-01-05 02:09:00,
2013-01-04 20:14:00,27.2,19.7,30.12,NW,321,1.0,2.0,73,0.00,,---,0.01,VWS V13.01,2013-01-05 02:14:00,
2013-01-04 20:19:00,27.0,19.5,30.12,NW,321,0.0,2.0,73,0.00,,---,0.01,VWS V13.01,2013-01-05 02:19:00,
2013-01-04 20:24:00,26.9,19.7,30.12,NW,321,1.0,2.0,74,0.00,,---,0.01,VWS V13.01,2013-01-05 02:24:00,
2013-01-04 20:29:00,26.9,19.7,30.12,WNW,290,0.0,3.0,74,0.00,,---,0.01,VWS V13.01,2013-01-05 02:29:00,
2013-01-04 20:34:00,26.9,19.7,30.12,North,355,0.0,2.0,74,0.00,,---,0.01,VWS V13.01,2013-01-05 02:34:00,
2013-01-04 20:39:00,26.9,20.0,30.13,NW,314,1.0,3.0,75,0.00,,---,0.01,VWS V13.01,2013-01-05 02:39:00,
2013-01-04 20:44:00,27.0,20.1,30.13,NNW,334,0.0,3.0,75,0.00,,---,0.01,VWS V13.01,2013-01-05 02:44:00,
2013-01-04 20:49:00,27.0,20.5,30.13,North,5,1.0,3.0,76,0.00,,---,0.01,VWS V13.01,2013-01-05 02:49:00,
2013-01-04 20:54:00,27.1,20.5,30.13,NNW,346,2.0,3.0,76,0.00,,---,0.01,VWS V13.01,2013-01-05 02:54:00,
2013-01-04 20:59:00,27.2,21.0,30.13,NNW,344,2.0,5.0,77,0.00,,---,0.01,VWS V13.01,2013-01-05 02:59:00,
2013-01-04 21:04:00,27.3,21.1,30.13,NW,307,3.0,5.0,77,0.00,,---,0.01,VWS V13.01,2013-01-05 03:04:00,
2013-01-04 21:09:00,27.3,21.1,30.13,NNW,339,2.0,5.0,77,0.00,,---,0.01,VWS V13.01,2013-01-05 03:09:00,
2013-01-04 21:14:00,27.4,21.1,30.13,NNW,330,2.0,5.0,77,0.00,,---,0.01,VWS V13.01,2013-01-05 03:14:00,
2013-01-04 21:19:00,27.4,21.1,30.13,NNW,338,1.0,5.0,77,0.00,,---,0.01,VWS V13.01,2013-01-05 03:19:00,
2013-01-04 21:24:00,27.4,21.1,30.14,NNW,346,0.0,5.0,77,0.00,,---,0.01,VWS V13.01,2013-01-05 03:24:00,
2013-01-04 21:29:00,27.4,21.1,30.14,North,355,1.0,5.0,77,0.00,,---,0.01,VWS V13.01,2013-01-05 03:29:00,
2013-01-04 21:34:00,27.4,21.1,30.15,North,349,1.0,2.0,77,0.00,,---,0.01,VWS V13.01,2013-01-05 03:34:00,
2013-01-04 21:39:00,27.4,21.1,30.15,North,360,2.0,2.0,77,0.00,,---,0.01,VWS V13.01,2013-01-05 03:39:00,
2013-01-04 21:44:00,27.3,21.1,30.15,NW,323,3.0,4.0,77,0.00,,---,0.01,VWS V13.01,2013-01-05 03:44:00,
2013-01-04 21:50:00,27.1,20.5,30.15,NNW,327,3.0,4.0,76,0.00,,---,0.01,VWS V13.01,2013-01-05 03:50:00,
2013-01-04 21:55:00,27.0,20.5,30.15,NW,325,2.0,4.0,76,0.00,,---,0.01,VWS V13.01,2013-01-05 03:55:00,
2013-01-04 22:00:00,26.9,20.7,30.15,North,350,3.0,4.0,77,0.00,,---,0.01,VWS V13.01,2013-01-05 04:00:00,
2013-01-04 22:05:00,26.8,20.6,30.15,NNW,327,3.0,9.0,77,0.00,,---,0.01,VWS V13.01,2013-01-05 04:05:00,
2013-01-04 22:10:00,26.7,20.2,30.16,North,355,2.0,11.0,76,0.00,,---,0.01,VWS V13.01,2013-01-05 04:10:00,
2013-01-04 22:15:00,26.6,20.1,30.16,NNW,338,3.0,11.0,76,0.00,,---,0.01,VWS V13.01,2013-01-05 04:15:00,
2013-01-04 22:20:00,26.5,20.0,30.16,NNW,329,3.0,11.0,76,0.00,,---,0.01,VWS V13.01,2013-01-05 04:20:00,
2013-01-04 22:25:00,26.5,20.0,30.16,NW,326,2.0,11.0,76,0.00,,---,0.01,VWS V13.01,2013-01-05 04:25:00,
2013-01-04 22:30:00,26.4,19.9,30.16,NNW,333,1.0,11.0,76,0.00,,---,0.01,VWS V13.01,2013-01-05 04:30:00,
2013-01-04 22:35:00,26.3,19.8,30.17,NNW,333,2.0,3.0,76,0.00,,---,0.01,VWS V13.01,2013-01-05 04:35:00,
2013-01-04 22:40:00,26.2,20.0,30.17,NNW,333,0.0,3.0,77,0.00,,---,0.01,VWS V13.01,2013-01-05 04:40:00,
2013-01-04 22:45:00,26.2,20.0,30.17,NNW,333,0.0,3.0,77,0.00,,---,0.01,VWS V13.01,2013-01-05 04:45:00,
2013-01-04 22:50:00,26.1,19.9,30.17,NNW,344,2.0,3.0,77,0.00,,---,0.01,VWS V13.01,2013-01-05 04:50:00,
2013-01-04 22:55:00,26.1,19.6,30.17,NNW,348,3.0,6.0,76,0.00,,---,0.01,VWS V13.01,2013-01-05 04:55:00,
2013-01-04 23:00:00,25.9,19.4,30.17,North,350,1.0,6.0,76,0.00,,---,0.01,VWS V13.01,2013-01-05 05:00:00,
2013-01-04 23:01:00,25.9,19.4,30.17,North,350,1.0,6.0,76,0.00,,---,0.01,VWS V13.01,2013-01-05 05:01:00,
2013-01-04 23:06:00,25.7,19.2,30.17,North,351,0.0,2.0,76,0.00,,---,0.01,VWS V13.01,2013-01-05 05:06:00,
2013-01-04 23:11:00,25.6,19.1,30.16,North,351,1.0,2.0,76,0.00,,---,0.01,VWS V13.01,2013-01-05 05:11:00,
2013-01-04 23:16:00,25.5,19.3,30.17,North,350,0.0,2.0,77,0.00,,---,0.01,VWS V13.01,2013-01-05 05:16:00,
2013-01-04 23:21:00,25.4,19.2,30.16,North,350,1.0,2.0,77,0.00,,---,0.01,VWS V13.01,2013-01-05 05:21:00,
2013-01-04 23:26:00,25.4,19.2,30.17,North,351,0.0,2.0,77,0.00,,---,0.01,VWS V13.01,2013-01-05 05:26:00,
2013-01-04 23:31:00,25.3,19.1,30.17,North,351,0.0,2.0,77,0.00,,---,0.01,VWS V13.01,2013-01-05 05:31:00,
2013-01-04 23:36:00,25.3,19.1,30.17,North,351,1.0,1.0,77,0.00,,---,0.01,VWS V13.01,2013-01-05 05:36:00,
2013-01-04 23:41:00,25.2,19.3,30.16,North,350,0.0,2.0,78,0.00,,---,0.01,VWS V13.01,2013-01-05 05:41:00,
2013-01-04 23:46:00,25.2,19.0,30.17,North,5,1.0,3.0,77,0.00,,---,0.01,VWS V13.01,2013-01-05 05:46:00,
2013-01-04 23:51:00,25.1,18.9,30.17,NNE,17,0.0,4.0,77,0.00,,---,0.01,VWS V13.01,2013-01-05 05:51:00,
2013-01-04 23:56:00,25.0,18.8,30.17,NNE,17,0.0,4.0,77,0.00,,---,0.01,VWS V13.01,2013-01-05 05:56:00,